DW8947 Weather Reports


Display with metric or nautical units.
time (UTC)temp
F
wind
direction
speed
MPH
gust
MPH
rain 1hr
in
rain 24hr
in
rain mn
in
humidity
%
barometer
mb
20260508094705 50 288 0.0 0.0 0.00 0.00 0.00 89 1014.6
20260508093205 50 288 0.0 0.0 0.00 0.00 0.00 89 1014.6
20260508091204 50 288 0.0 0.0 0.00 0.00 0.00 89 1014.7
20260508090705 50 288 0.0 2.0 0.00 0.00 0.00 88 1014.7
20260508090204 50 288 0.0 2.0 0.00 0.00 0.00 88 1014.8
20260508085204 50 288 0.0 2.0 0.00 0.00 0.00 88 1014.8
20260508084205 51 288 0.0 2.0 0.00 0.00 0.00 88 1014.8
20260508083204 51 288 0.0 2.0 0.00 0.00 0.00 87 1014.8
20260508082704 51 288 0.0 2.0 0.00 0.00 0.00 87 1014.8
20260508082204 51 288 0.0 2.0 0.00 0.00 0.00 87 1014.8
20260508081204 51 288 0.0 2.0 0.00 0.00 0.00 87 1014.8
20260508080704 51 288 0.0 2.0 0.00 0.00 0.00 87 1014.8
20260508075704 52 288 0.0 2.0 0.00 0.00 0.00 86 1014.8
20260508074705 52 288 0.0 2.0 0.00 0.00 0.00 86 1014.8
20260508073704 52 84 0.0 2.0 0.00 0.00 0.00 86 1014.9
20260508073204 52 84 0.0 2.0 0.00 0.00 0.00 86 1014.9
20260508072704 52 84 0.0 2.0 0.00 0.00 0.00 86 1015.0
20260508072204 52 84 0.0 2.0 0.00 0.00 0.00 86 1014.9
20260508064204 53 84 0.0 2.0 0.00 0.00 0.00 84 1015.0
20260508062705 53 84 0.0 0.0 0.00 0.00 0.00 85 1015.0
20260508062205 53 84 0.0 0.0 0.00 0.00 0.00 83 1015.0
20260508061204 53 84 0.0 0.0 0.00 0.00 0.00 84 1015.0
20260508060704 53 84 0.0 0.0 0.00 0.00 0.00 83 1015.1
20260508060204 53 84 0.0 0.0 0.00 0.00 0.00 83 1015.2
20260508054205 53 156 0.0 1.0 0.00 0.00 0.00 82 1015.2
20260508053204 54 94 0.0 2.0 0.00 0.00 0.00 82 1015.2
20260508052704 54 94 0.0 2.0 0.00 0.00 0.00 81 1015.2
20260508051704 54 94 0.0 1.0 0.00 0.00 0.00 80 1015.1
20260508051204 54 94 0.0 1.0 0.00 0.00 0.00 80 1015.2
20260508050704 54 94 0.0 1.0 0.00 0.00 0.00 79 1015.2
20260508045704 55 94 0.0 2.0 0.00 0.00 0.00 78 1015.2
20260508045204 55 94 0.0 2.0 0.00 0.00 0.00 78 1015.2
20260508044704 55 94 0.0 2.0 0.00 0.00 0.00 77 1015.2
20260508044204 55 94 0.0 2.0 0.00 0.00 0.00 77 1015.3
20260508043204 55 94 0.0 2.0 0.00 0.00 0.00 76 1015.3
20260508042704 55 94 0.0 2.0 0.00 0.00 0.00 77 1015.2
20260508035204 56 94 0.0 0.0 0.00 0.00 0.00 75 1015.3
20260508034705 56 94 0.0 0.0 0.00 0.00 0.00 75 1015.1
20260508034204 56 94 0.0 0.0 0.00 0.00 0.00 75 1015.1
20260508033204 57 94 0.0 0.0 0.00 0.00 0.00 75 1015.1
20260508032704 57 94 0.0 0.0 0.00 0.00 0.00 75 1015.2
20260508031705 57 94 0.0 0.0 0.00 0.00 0.00 74 1015.2
20260508030704 58 94 0.0 0.0 0.00 0.00 0.00 74 1015.2
20260508025705 58 94 0.0 0.0 0.00 0.00 0.00 74 1015.2
20260508024204 58 94 0.0 0.0 0.00 0.00 0.00 74 1015.4
20260508023204 59 94 0.0 0.0 0.00 0.00 0.00 73 1015.4
20260508022704 59 94 0.0 0.0 0.00 0.00 0.00 72 1015.4
20260508022204 59 94 0.0 0.0 0.00 0.00 0.00 71 1015.4
20260508021204 60 94 0.0 0.0 0.00 0.00 0.00 70 1015.4
20260508020704 60 94 0.0 0.0 0.00 0.00 0.00 70 1015.5
20260508015704 61 94 0.0 0.0 0.00 0.00 0.00 69 1015.5
20260508015204 61 95 0.0 1.0 0.00 0.00 0.00 67 1015.5
20260508013705 61 132 0.0 2.0 0.00 0.00 0.00 68 1015.6
20260508011704 61 90 0.0 2.0 0.00 0.00 0.00 67 1015.8
20260508010204 62 214 0.0 2.0 0.00 0.00 0.00 66 1015.9
20260508005205 62 200 0.0 1.0 0.00 0.00 0.00 62 1016.0
20260508004704 62 200 0.0 2.0 0.00 0.00 0.00 63 1016.1
20260508000704 63 0 0.0 2.0 0.00 0.00 0.00 64 1016.2
20260508000205 63 0 0.0 2.0 0.00 0.00 0.00 63 1016.2
20260507235704 63 0 1.0 1.0 0.00 0.00 0.00 65 1016.2
20260507235204 63 0 0.0 2.0 0.00 0.00 0.00 63 1016.2
20260507234704 63 0 0.0 2.0 0.00 0.00 0.00 65 1016.3
20260507233704 63 59 0.0 2.0 0.00 0.00 0.00 64 1016.3
20260507233204 63 59 0.0 2.0 0.00 0.00 0.00 63 1016.4
20260507230204 64 79 0.0 2.0 0.00 0.00 0.00 63 1016.6
20260507225204 63 46 0.0 2.0 0.00 0.00 0.00 61 1016.8
20260507224204 64 87 1.0 2.0 0.00 0.00 0.00 60 1016.9
20260507223705 64 241 0.0 2.0 0.00 0.00 0.00 59 1016.9
20260507222704 64 204 0.0 2.0 0.00 0.00 0.00 59 1017.0
20260507221203 64 20 1.0 2.0 0.00 0.00 0.00 60 1017.1
20260507220704 64 199 0.0 2.0 0.00 0.00 0.00 60 1017.2
20260507214704 62 69 0.0 2.0 0.00 0.00 0.00 69 1017.4
20260507214204 62 69 0.0 2.0 0.00 0.00 0.00 67 1017.4
20260507213704 62 63 0.0 2.0 0.00 0.00 0.00 67 1017.5
20260507212704 62 29 0.0 2.0 0.00 0.00 0.00 69 1017.6
20260507211704 63 55 1.0 2.0 0.00 0.00 0.00 66 1017.6
20260507210204 60 293 0.0 2.0 0.00 0.00 0.00 73 1017.9
20260507204704 60 300 0.0 2.0 0.00 0.00 0.00 75 1018.1
20260507202704 59 253 1.0 1.0 0.00 0.00 0.00 76 1018.3
20260507200704 59 34 0.0 2.0 0.00 0.00 0.00 77 1018.5
20260507195204 58 27 0.0 1.0 0.00 0.00 0.00 76 1018.5
20260507194704 58 15 0.0 2.0 0.00 0.00 0.00 76 1018.5
20260507194204 58 15 0.0 2.0 0.00 0.00 0.00 76 1018.5
20260507192704 58 8 0.0 1.0 0.00 0.00 0.00 76 1018.5
20260507192204 58 8 0.0 2.0 0.00 0.00 0.00 75 1018.6
20260507190704 58 53 0.0 2.0 0.00 0.00 0.00 77 1018.6
20260507185704 58 104 0.0 1.0 0.00 0.00 0.00 78 1018.7
20260507185204 57 104 0.0 2.0 0.00 0.00 0.00 76 1018.7
20260507184704 57 111 0.0 2.0 0.00 0.00 0.00 76 1018.8
20260507184204 57 111 0.0 2.0 0.00 0.00 0.00 77 1018.8
20260507183704 57 111 0.0 2.0 0.00 0.00 0.00 76 1018.8
20260507181204 58 287 0.0 1.0 0.00 0.00 0.00 77 1018.9
20260507180204 58 214 0.0 2.0 0.00 0.00 0.00 76 1018.9
20260507174704 58 241 0.0 1.0 0.00 0.00 0.00 78 1018.9
20260507173704 57 171 0.0 1.0 0.00 0.00 0.00 81 1019.0
20260507172704 56 238 0.0 2.0 0.00 0.00 0.00 81 1018.9
20260507172204 56 81 0.0 3.0 0.00 0.00 0.00 81 1018.9
20260507171704 55 223 0.0 2.0 0.00 0.00 0.00 82 1019.0
20260507170703 55 11 0.0 2.0 0.00 0.00 0.00 84 1019.0
20260507170204 55 356 1.0 2.0 0.00 0.00 0.00 85 1018.9
20260507165704 54 152 0.0 2.0 0.00 0.00 0.00 85 1018.9
20260507163704 54 152 0.0 2.0 0.00 0.00 0.00 85 1019.1
20260507162204 53 152 0.0 0.0 0.00 0.00 0.00 87 1019.0
20260507160704 53 152 0.0 2.0 0.00 0.00 0.00 86 1019.1
20260507154704 54 152 0.0 2.0 0.00 0.00 0.00 85 1019.2
20260507154204 54 113 0.0 2.0 0.00 0.00 0.00 85 1019.2
20260507153705 54 94 0.0 1.0 0.00 0.00 0.00 85 1019.2
20260507152704 54 93 0.0 2.0 0.00 0.00 0.00 84 1019.2
20260507152203 54 93 0.0 0.0 0.00 0.00 0.00 84 1019.2
20260507151204 54 94 0.0 0.0 0.00 0.00 0.00 86 1019.2
20260507150704 54 94 0.0 0.0 0.00 0.00 0.00 87 1019.2
20260507150204 53 94 0.0 0.0 0.00 0.00 0.00 87 1019.2
20260507145704 53 94 0.0 0.0 0.00 0.00 0.00 88 1019.1
20260507145203 53 94 0.0 0.0 0.00 0.00 0.00 88 1019.2
20260507144204 53 94 0.0 2.0 0.00 0.00 0.00 88 1019.1
20260507143704 53 94 0.0 2.0 0.00 0.00 0.00 88 1019.1
20260507142204 52 94 0.0 0.0 0.00 0.00 0.00 89 1019.0
20260507135703 52 94 0.0 0.0 0.00 0.00 0.00 89 1019.0
20260507132204 52 94 0.0 0.0 0.00 0.00 0.00 90 1019.0
20260507131704 52 94 0.0 0.0 0.00 0.00 0.00 90 1019.0
20260507130704 52 94 0.0 0.0 0.00 0.00 0.00 90 1019.0
20260507130204 52 94 0.0 0.0 0.00 0.00 0.00 90 1019.0
20260507124704 52 94 0.0 0.0 0.00 0.00 0.00 89 1019.1
20260507124204 52 94 0.0 0.0 0.00 0.00 0.00 89 1019.1
20260507123704 52 94 0.0 0.0 0.00 0.00 0.00 89 1019.0
20260507123203 52 94 0.0 0.0 0.00 0.00 0.00 89 1019.0
20260507115704 52 94 0.0 0.0 0.00 0.00 0.00 89 1019.2
20260507115204 52 94 0.0 0.0 0.00 0.00 0.00 89 1019.2
20260507114704 52 94 0.0 0.0 0.00 0.00 0.00 89 1019.2
20260507114204 52 94 0.0 0.0 0.00 0.00 0.00 89 1019.3
20260507113704 52 94 0.0 0.0 0.00 0.00 0.00 89 1019.2
20260507113204 52 94 0.0 0.0 0.00 0.00 0.00 89 1019.3
20260507111204 52 94 0.0 2.0 0.00 0.00 0.00 89 1019.4
20260507105704 52 94 0.0 2.0 0.00 0.00 0.00 89 1019.4
20260507105204 52 94 0.0 0.0 0.00 0.00 0.00 90 1019.4
20260507104704 52 94 0.0 2.0 0.00 0.00 0.00 90 1019.3
20260507103204 52 93 0.0 2.0 0.00 0.00 0.00 90 1019.3
20260507101704 52 93 0.0 2.0 0.00 0.00 0.00 91 1019.4
20260507101204 52 93 0.0 2.0 0.00 0.00 0.00 91 1019.5
20260507100703 52 93 0.0 1.0 0.00 0.00 0.00 91 1019.5
20260507095204 52 93 0.0 2.0 0.00 0.00 0.00 91 1019.3